CET,Max TemperatureF,Mean TemperatureF,Min TemperatureF,Max Dew PointF,MeanDew PointF,Min DewpointF,Max Humidity, Mean Humidity, Min Humidity, Max Sea Level PressureIn, Mean Sea Level PressureIn, Min Sea Level PressureIn, Max VisibilityMiles, Mean VisibilityMiles, Min VisibilityMiles, Max Wind SpeedMPH, Mean Wind SpeedMPH, Max Gust SpeedMPH,PrecipitationIn, CloudCover, Events, WindDirDegrees
2012-12-1,38,36,34,37,35,34,100,96,84,29.99,29.92,29.86,6,2,0,18,7,,0.03,7,Fog-Rain-Snow,219
2012-12-2,43,38,30,36,32,28,93,86,66,30.05,29.93,29.86,14,6,3,16,11,,0.01,3,Rain-Snow,262
2012-12-3,47,38,29,45,36,27,100,93,81,30.05,29.81,29.68,16,5,1,20,11,30,0.47,6,Rain-Snow,204
2012-12-4,42,38,35,40,37,34,100,92,73,29.66,29.59,29.56,16,6,3,17,9,29,0.02,5,Rain,254
2012-12-5,36,34,32,37,34,32,100,95,91,29.83,29.67,29.59,6,4,0,14,9,,0.04,5,Fog-Rain-Snow,257
2012-12-6,37,34,30,32,30,28,100,87,70,30.09,29.96,29.83,9,7,5,17,8,,0.00,4,Snow,246
2012-12-7,36,34,32,34,32,30,100,95,81,29.83,29.55,29.44,11,3,0,23,16,,0.12,6,Rain-Snow,189
2012-12-8,35,32,28,34,30,27,100,88,74,30.33,30.13,29.83,6,4,1,10,6,,0.00,4,,28
2012-12-9,44,36,28,41,36,28,100,90,75,30.29,30.06,29.89,14,5,2,17,13,,0.04,6,Rain-Snow,231
2012-12-10,42,37,32,37,35,28,93,87,74,30.21,30.00,29.89,11,6,2,18,12,28,0.12,5,Rain,317
2012-12-11,34,31,27,29,27,25,93,86,71,30.38,30.29,30.21,9,6,4,8,6,,0.00,2,,324
2012-12-12,32,29,26,27,24,19,93,82,68,30.30,30.14,30.01,8,5,4,9,6,,0.00,2,,195
2012-12-13,37,28,21,36,25,18,100,79,62,29.99,29.77,29.65,11,6,3,10,6,,0.00,5,Rain,152
2012-12-14,50,42,34,48,42,36,100,89,71,29.65,29.33,29.12,19,6,2,25,13,39,0.28,6,Rain,171
2012-12-15,49,46,44,45,43,41,93,83,71,29.55,29.45,29.24,17,8,4,22,17,,0.04,4,Rain,205
2012-12-16,47,44,42,43,42,40,93,87,77,29.68,29.63,29.56,18,7,4,18,14,,0.02,6,Rain,216
2012-12-17,47,44,40,43,42,37,100,88,79,29.77,29.65,29.59,14,7,4,18,11,,0.04,5,Rain,220
2012-12-18,43,40,37,43,40,37,100,96,87,30.12,29.95,29.77,9,4,1,12,7,,0.08,6,Rain,231
2012-12-19,44,42,41,42,39,36,100,90,76,30.20,30.14,30.06,6,3,0,9,4,,0.00,6,Fog,135
2012-12-20,46,42,39,45,39,36,100,90,74,30.04,29.78,29.68,9,4,2,15,10,,0.28,6,Rain,152
2012-12-21,48,44,41,46,45,43,100,92,85,30.01,29.81,29.71,9,6,4,13,10,,0.00,6,Rain,222
2012-12-22,,,,,,,,,,,,,,,,,,,0.00,,,-1
2012-12-23,55,50,46,54,50,46,100,94,82,29.84,29.77,29.71,6,5,2,22,17,,0.08,7,Rain,231
2012-12-24,53,50,47,50,47,45,100,86,67,29.83,29.70,29.53,19,6,2,23,9,,0.00,5,Rain,206
2012-12-25,52,48,44,47,44,39,100,82,63,29.65,29.54,29.47,19,7,4,29,18,44,0.02,6,Rain,222
2012-12-26,50,45,42,46,43,40,93,88,75,29.87,29.74,29.65,17,6,3,30,16,43,0.03,6,Rain,224
2012-12-27,48,46,44,46,43,41,100,87,71,30.04,29.69,29.56,14,6,3,25,16,37,0.39,6,Rain,241
2012-12-28,51,46,41,48,44,37,100,91,81,30.26,30.17,30.09,16,6,2,17,12,,0.08,,Rain,199
2012-12-29,53,50,48,48,45,42,94,79,59,30.09,29.89,29.71,17,7,6,23,18,34,0.03,,Rain,196
2012-12-30,47,44,40,43,40,37,93,83,67,30.09,29.96,29.83,17,6,1,23,18,36,0.28,,Rain,230
2012-12-31,50,48,45,45,42,41,87,80,70,30.09,29.88,29.62,19,7,6,28,21,39,0.00,,Rain,203